Home > Time Zones > World Clock > Weather > Egypt > Cairo > Past weeks

Flag for Egypt Weather past 2 weeks in Cairo, Egypt

Now
77 °F

Sunny.


Feels Like: 78 °F
Forecast: 64 / 79 °F
Wind: 7 mph from Northwest

Location: Cairo Airport

Current Time: Mar 28, 2015 at 4:41:43 PM

Latest Report: Mar 28, 2015 at 4:00 PM


Visibility: 10 mi

Pressure: 29.77 "Hg

Humidity: 34%

Dew point: 46 °F

Location of CairoLocation

Historic Weather in Cairo — Graph

°F

Cairo temperature yesterday

Maximum temperature yesterday: 95 °F (at 3:00 PM)
Minimum temperature yesterday: 66 °F (at 1:30 AM)
Average temperature yesterday: 83 °F

Past Weeks' High & Low Weather Summary

 TemperatureHumidityPressure
High95 °F (Mar 27, 3:00 PM)94% (Mar 15, 6:30 AM)30.21 "Hg (Mar 15, 6:30 AM)
Low48 °F (Mar 22, 6:30 AM)15% (Mar 23, 1:30 PM)29.62 "Hg (Mar 28, 12:00 AM)
Average65 °F51%30.02 "Hg
* Reported Mar 13 3:00 PM — Mar 28 3:30 PM, Cairo, Weather by CustomWeather, © 2015

Note: Actual official high and low records may vary slightly from our data, if they occured in-between our weather recording intervals... More about our weather records

Advertising

Cairo weather history for previous 24 hours

 ConditionsComfort  
Time TempWeatherWind HumidityBarometerVisibility
3:30 PM
Sat, Mar 28
79 °FSunny.8 mph32%29.80 "Hg10 mi
3:00 PM81 °FSunny.6 mph30%29.80 "Hg10 mi
2:30 PM81 °FSunny.6 mph28%29.77 "Hg10 mi
2:00 PM81 °FSunny.2 mph28%29.80 "Hg10 mi
1:30 PM81 °FClear.No wind24%29.80 "Hg4 mi
1:00 PM81 °FClear.2 mph24%29.80 "Hg4 mi
12:30 PM82 °FClear.3 mph23%29.80 "Hg4 mi
12:00 PM82 °FClear.6 mph23%29.80 "Hg4 mi
11:30 AM82 °FClear.No wind23%29.83 "Hg4 mi
11:00 AM81 °FClear.3 mph28%29.80 "Hg4 mi
10:30 AM81 °FSunny.5 mph30%29.83 "Hg10 mi
10:00 AM79 °FSunny.9 mph39%29.80 "Hg10 mi
9:30 AM77 °FSunny.8 mph42%29.80 "Hg10 mi
9:00 AM77 °FSunny.10 mph42%29.80 "Hg10 mi
8:30 AM77 °FPartly sunny.8 mph42%29.80 "HgN/A
8:00 AM75 °FPartly sunny.8 mph44%29.80 "HgN/A
7:30 AM73 °FMild.6 mph47%29.77 "HgN/A
7:00 AM73 °FMild.6 mph47%29.77 "HgN/A
6:30 AM72 °FMild.7 mph50%29.77 "HgN/A
6:00 AM72 °FMild.7 mph50%29.77 "HgN/A
5:30 AM72 °FMild.3 mph50%29.74 "HgN/A
5:00 AM72 °FMild.3 mph53%29.74 "HgN/A
4:30 AM72 °FMild.5 mph53%29.74 "HgN/A
4:00 AM72 °FMild.5 mph53%29.74 "HgN/A
3:30 AM72 °FMild.5 mph53%29.71 "HgN/A
3:00 AM73 °FClear.3 mph50%29.71 "Hg10 mi
2:30 AM73 °FPassing clouds.5 mph50%29.71 "HgN/A
2:00 AM75 °FClear.3 mph50%29.68 "Hg10 mi
1:30 AM75 °FClear.No wind54%29.68 "Hg10 mi
1:00 AM73 °FClear.5 mph57%29.68 "Hg4 mi
12:30 AM81 °FClear.10 mph45%29.68 "Hg4 mi
12:00 AM90 °FClear.7 mph17%29.62 "Hg10 mi
11:30 PM
Fri, Mar 27
84 °FClear.7 mph20%29.65 "Hg10 mi
11:00 PM84 °FClear.7 mph20%29.65 "Hg10 mi
10:30 PM84 °FClear.7 mph22%29.65 "Hg10 mi
10:00 PM84 °FClear.7 mph22%29.65 "Hg10 mi
9:30 PM82 °FClear.2 mph40%29.68 "Hg10 mi
9:00 PM82 °FClear.2 mph40%29.68 "Hg10 mi
8:30 PM84 °FClear.5 mph37%29.71 "Hg10 mi
8:00 PM84 °FClear.5 mph37%29.71 "Hg10 mi
7:30 PM86 °FClear.6 mph33%29.68 "Hg10 mi
7:00 PM86 °FClear.6 mph33%29.68 "Hg10 mi
6:30 PM86 °FClear.3 mph33%29.71 "Hg4 mi
6:00 PM90 °FClear.3 mph27%29.68 "Hg4 mi
5:30 PM90 °FClear.6 mph31%29.68 "Hg4 mi
5:00 PM90 °FClear.6 mph31%29.68 "Hg4 mi
4:30 PM90 °FClear.6 mph33%29.68 "Hg4 mi
4:00 PM91 °FClear.6 mph30%29.68 "Hg4 mi
Weather by CustomWeather, © 2015

See weather overviewHow to use our weather pages